Terminal Aerodrome Forecast
Issued by NWS

Home | Current Version | Previous Version | Text Only | Print | Product List | Glossary On
Versions: 1 2 3 4 5 6 7 8 9 10 11 12
000
FTUS42 TJSJ 161700
TAFJMZ
TAF
TJMZ 161732Z 1618/1718 27012KT P6SM VCSH SCT025 BKN035
     FM162200 VRB03KT P6SM SCT040
     FM171530 27010KT P6SM SCT025 BKN040
      AMD NOT SKED 1623/1711=

USA.gov is the U.S. government's official web portal to all federal, state and local government web resources and services.